Preview of NWS' New Version of Forecast
This preview is not operational and should not be used for support decisions.

Regional Weather Roundup (RWR)

Issued by National Weather Service (NWS)

                            
000
ASUS42 KTBW 201317
RWRFL 
FLORIDA REGIONAL WEATHER ROUNDUP
NATIONAL WEATHER SERVICE TAMPA BAY RUSKIN FL
900 AM EDT FRI SEP 20 2019

NOTE: "FAIR" INDICATES FEW OR NO CLOUDS BELOW 12,000 FEET WITH NO
SIGNIFICANT WEATHER AND/OR OBSTRUCTIONS TO VISIBILITY.

FLZ001>010-012>015-112-114-115-201400-
PANHANDLE FLORIDA
  
CITY           SKY/WX    TMP DP  RH WIND       PRES   REMARKS
PENSACOLA      FAIR      75  66  73 E9        30.14R                  
PENSACOLA NAS  PTSUNNY   76  68  76 E16       30.13R                  
MILTON NAS     FAIR      70  61  73 NE7       30.16S                  
CRESTVIEW      FAIR      65  59  81 E5        30.18R                  
DUKE FIELD     FAIR      70  60  70 E8        30.16R                  
VALPARAISO     FAIR      72  60  67 E8        30.15R                  
MARY ESTHER    PTSUNNY   73  63  71 E8        30.14R                  
TRI COUNTY       N/A     71  60  68 E9        30.19                   
PANAMA CITY    FAIR      73  62  68 NE8       30.15R                  
TYNDALL AFB    FAIR      71  63  76 E8        30.14S                  
APALACHICOLA   FAIR      72  63  73 NE9       30.14R                  

STATION/POSITION SKY/WX   TEMP    WIND        PRES    WAVE   SWELL
                          AIR SEA DIR/SP/G            HT/PER HT/PER
                          (F)     (DEG/KT/KT) (MB)    (FT/S) (FT/S)
30.1N   87.6W              80 85   90/ 21/ 25 1019.7R   7/ 7
29.2N   88.2W              81      80/ 17/ 19 1018.7R   6/ 7
28.8N   86.0W                 85   80/ 19/ 23 1018.8R   8/ 8   3/ 8
PANAMA CITY BEAC           71 85   60/ 10/ 15 1021.4
TOWER C                    77      70/ 25/ 28 1020.4R
28.5N   84.5W              80      70/ 17/ 21 1019.5R   5/ 6

$$
FLZ011-016>038-118-127-128-134-139-239-201400-
NORTH FLORIDA
  
CITY           SKY/WX    TMP DP  RH WIND       PRES   REMARKS
MARIANNA       FAIR      71  62  73 E10       30.18R                  
TALLAHASSEE    PTSUNNY   72  63  73 E9        30.18R                  
PERRY          CLOUDY    71  66  84 E5        30.18R                  
LIVE OAK       SUNNY     70  66  88 N7G13     30.18R                  
CROSS CITY     CLOUDY    72  68  88 NE9       30.15S                  
LAKE CITY      FAIR      70  64  83 NE5       30.18R                  
GAINESVILLE    PTSUNNY   73  70  90 N8        30.17S                  
WILLISTON      FAIR      74  70  86 NE8       30.14S                  
PALATKA        FAIR      73  68  83 CALM      30.15R                  
MAYPORT NAS    FAIR      81  65  58 E16       30.16R                  
JACKSONVILLE   LGT RAIN  72  68  87 N8        30.17R                  
JAX NAS        FAIR      75  66  73 N8        30.17R                  
JAX CECIL      SUNNY     73  70  88 N10       30.16R                  
FERNANDINA BEA FAIR      81  65  59 E14       30.17R                  
ST AUGUSTINE   CLOUDY    81  32  17 E17       30.15R                  
PALM COAST     PTSUNNY   81  66  61 E10G17    30.13R                  

STATION/POSITION SKY/WX   TEMP    WIND        PRES    WAVE   SWELL
                          AIR SEA DIR/SP/G            HT/PER HT/PER
                          (F)     (DEG/KT/KT) (MB)    (FT/S) (FT/S)
SHELL POINT      NOT AVBL
KEATON BEACH               70      50/  9/ 11 1021.5R
CEDAR KEY                  71      40/  9/ 10 1020.0R
FERNANDINA                 84 80   70/  5/  9 1022.2R
30.7N   81.3W                 82                N/A     6/14   3/14
MAYPORT                    80 81   80/ 12/ 17 1021.5R
31.4N   80.9W              78 81   50/ 17/ 19 1021.9R   5/ 6   3/13
ST AUGUSTINE               81 81   80/ 18/ 21 1020.9R

$$
FLZ040-043>046-052-053-057-058-063-144-201400-
INTERIOR CENTRAL FLORIDA
  
CITY           SKY/WX    TMP DP  RH WIND       PRES   REMARKS
OCALA          PTSUNNY   75  70  84 NE6       30.14R                  
LEESBURG       FAIR      76  70  82 NE6       30.12R                  
SANFORD        CLOUDY    76  68  76 NE12      30.11R                  
ORLANDO EXEC   PTSUNNY   79  69  71 E12       30.11R                  
ORLANDO INTL   PTSUNNY   78  70  76 E8        30.10R                  
KISSIMMEE      CLOUDY    76  71  85 E5        30.11S                  
WINTER HAVEN   LGT RAIN  77  70  79 E13       30.11R                  
LAKELAND       PTSUNNY   75  70  83 E10       30.10R                  
BARTOW         PTSUNNY   75  70  83 E14       30.09R                  
SEBRING        PTSUNNY   76  72  86 NE13      30.07R                  
OKEECHOBEE       N/A     73  72  94 CALM      30.06R                  

$$
FLZ041-047-054-059-064-141-147-201400-
EAST CENTRAL FLORIDA
  
CITY           SKY/WX    TMP DP  RH WIND       PRES   REMARKS
ORMOND BEACH   MOSUNNY   81  66  61 E9        30.13R                  
DAYTONA BEACH  PTSUNNY   79  67  66 E16       30.12R                  
DELAND         FAIR      75  68  78 NE5       30.12R                  
NEW SMYRNA BEA MOSUNNY   81  64  57 E15G25    30.13R                  
JFK SPACE CTR  PTSUNNY   79  70  73 E10G22    30.09R                  
TITUSVILLE     LGT RAIN  82  70  65 E10G20    30.10R                  
CAPE CANAVERAL FAIR      80  71  71 E15G22    30.09R                  
PATRICK AFB    FAIR      81  69  67 E21       30.08R                  
MELBOURNE      PTSUNNY   81  67  62 E18G29    30.08R                  
VERO BEACH     PTSUNNY   82  70  66 E22G30    30.06R                  
FT PIERCE      CLOUDY    80  69  69 E21G28    30.05R                  
STUART         PTSUNNY   81  72  74 E23G29    30.05R                  

STATION/POSITION SKY/WX   TEMP    WIND        PRES    WAVE   SWELL
                          AIR SEA DIR/SP/G            HT/PER HT/PER
                          (F)     (DEG/KT/KT) (MB)    (FT/S) (FT/S)
28.5N   80.2W              81 83   80/ 21/ 27 1019.3R  12/14  10/14
28.9N   78.5W              79 81   70/ 19/ 25 1020.4R  12/14  10/14
TRIDENT PIER               80 82   60/ 11/ 16 1020.2R
28.4N   80.5W                 81                N/A     5/13   3/13
27.5N   80.2W                 82                N/A    10/13   7/13

$$
FLZ050-056-061-142-242-148-248-149-249-151-251-155-255-
160-260-201400-
WEST CENTRAL FLORIDA
  
CITY           SKY/WX    TMP DP  RH WIND       PRES   REMARKS
CRYSTAL RIVER  FAIR      73  68  83 NE8       30.12R                  
INVERNESS      FAIR      73  73 100 NE7       30.12S FOG              
BROOKSVILLE    FAIR      75  68  78 NE9       30.11R                  
CLEARWATER AIR FAIR      73  68  83 E6        30.08R                  
ST PETE CLEARW FAIR      77  69  76 NE10G17   30.08R                  
TAMPA INTL     FAIR      76  69  79 NE9       30.09R                  
TAMPA EXEC     CLOUDY    73  72  94 E7        30.09S                  
PLANT CITY     FAIR      77  72  83 NE9       30.11R                  
MACDILL AFB    FAIR      76  70  80 E13       30.08R                  
PETER O KNIGHT CLOUDY    77  72  83 NE14      30.08R                  
ST PETERSBURG  FAIR      78  72  81 NE16      30.07R                  
SARASOTA       FAIR      78  70  76 E13       30.04R                  
VENICE         FAIR      79  72  78 NE17G23   30.05S                  

STATION/POSITION SKY/WX   TEMP    WIND        PRES    WAVE   SWELL
                          AIR SEA DIR/SP/G            HT/PER HT/PER
                          (F)     (DEG/KT/KT) (MB)    (FT/S) (FT/S)
27.3N   84.2W                 84                N/A     7/ 7
CLEARWATER BEACH           73 85   30/  6/ 12 1018.6
MIDDLE TAMPA BAY           76      80/ 17/ 21 1018.3R
VENICE                     76 85   60/ 12/ 16 1017.3R

$$
FLZ066-069-070-075>078-162-262-165-265-201400-
SOUTHWEST FLORIDA AND KEYS
  
CITY           SKY/WX    TMP DP  RH WIND       PRES   REMARKS
PUNTA GORDA    FAIR      75  72  90 NE13      30.06R                  
FT MYERS       FAIR      76  70  82 NE8       30.02R                  
SOUTHWEST INTL FAIR      76  70  82 NE14      30.03R                  
NAPLES         FAIR      79  73  82 NE13      30.00R                  
MARCO ISLAND   FAIR      77  71  82 NE10      30.01R                  
IMMOKALEE      FAIR      77  73  88 NE12      30.00S                  
MARATHON       FAIR      84  70  62 NE15      29.95R                  
KEY WEST NAS   FAIR      83  74  74 NE13      29.95R                  
KEY WEST INTL  FAIR      82  74  76 NE13G22   29.96R                  

STATION/POSITION SKY/WX   TEMP    WIND        PRES    WAVE   SWELL
                          AIR SEA DIR/SP/G            HT/PER HT/PER
                          (F)     (DEG/KT/KT) (MB)    (FT/S) (FT/S)
NAPLES                     76 83   40/  7/ 12 1016.0R
26.0N   85.6W              83 86   70/ 17/ 23 1016.1R   9/ 8   7/ 8
DRY TORTUGAS               83      80/ 22/ 25 1014.7R
SAND KEY                   81      50/ 21/ 24 1012.6
SOMBRERO KEY               83      60/ 20/ 24 1014.3
LONG KEY                   83                 1013.3

$$
FLZ067-068-071>074-168-172>174-201400-
SOUTHEAST FLORIDA 
  
CITY           SKY/WX    TMP DP  RH WIND       PRES   REMARKS
W PALM BEACH   PTSUNNY   81  70  69 E22G29    30.02R                  
FT LAUDER-EXEC FAIR      83  72  69 E17G26    29.99R                  
FT LAUDERDALE  FAIR      83  71  67 E20G28    29.98R                  
POMPANO BEACH  PTSUNNY   83  72  69 E15G26    29.99R                  
PEMBROKE PINES FAIR      84  70  62 E18G25    30.00R                  
OPA LOCKA      FAIR      81  73  76 NE14      29.99R                  
MIAMI          LGT RAIN  80  71  74 VRB6G16   29.99R                  
WEST KENDALL   LGT RAIN  80  73  79 E14       29.98R                  
HOMESTEAD      PTSUNNY   80  71  73 E9G18     29.97R                  

STATION/POSITION SKY/WX   TEMP    WIND        PRES    WAVE   SWELL
                          AIR SEA DIR/SP/G            HT/PER HT/PER
                          (F)     (DEG/KT/KT) (MB)    (FT/S) (FT/S)
VIRGINIA KEY               82 84   30/ 12/ 18 1014.6
LAKE WORTH                 81 82   80/ 24/ 26 1017.3R
FOWEY ROCKS                83 84   80/ 21/ 23 1015.3R
SETTLEMEN